Tracking 19245 objects as of 21-Aug-2018
HD Live streaming from Space Station
objects crossing your sky now

ARIANE 42L R/B

Track ARIANE 42L R/B now!
10-day predictions


NORAD ID: 25586
Int'l Code: 1998-075B
Perigee: 215.5 km
Apogee: 17,707.2 km
Inclination: 7.5 °
Period: 314.9 minutes
Semi major axis: 15332 km
RCS: 21.3079 m2 (large)
Launch date: December 22, 1998
Source: France (FR)
Launch site: FRENCH GUIANA (FRGUI)

Note: This is a ROCKET BODY
aabbcc
Your satellite tracking list
Your tracking list is empty




NASA's NSSDC Master Catalog

Two Line Element Set (TLE):
1 25586U 98075B   18232.67864353  .00027992  00000-0  96108-3 0  9999
2 25586   7.4720 269.2377 5704197  58.2929 345.0498  4.57289434249310
Source of the keplerian elements: AFSPC